Flag for Germany Weather past 2 weeks in Mechernich, North Rhine-Westphalia, Germany

Now
66 °F

Broken clouds.


Feels Like: 66 °F
Forecast: 56 / 75 °F
Wind: No wind

Location: Noervenich

Current Time: Jul 23, 2014 at 8:41:48 AM

Latest Report: Jul 23, 2014 at 7:20 AM


Visibility: 5 mi

Pressure: 30.07 "Hg

Humidity: 88%

Dew point: 63 °F

Location of MechernichLocation

Historic Weather in Mechernich — Graph

°F

Mechernich temperature yesterday

Maximum temperature yesterday: 79 °F (at 5:03 PM)
Minimum temperature yesterday: 66 °F (at 12:20 AM)
Average temperature yesterday: 71 °F

Past Weeks' High & Low Weather Summary

 TemperatureHumidityPressure
High93 °F (Jul 18, 5:20 PM)100% (Jul 8, 9:00 AM)30.18 "Hg (Jul 8, 9:00 AM)
Low54 °F (Jul 9, 1:20 AM)28% (Jul 18, 5:20 PM)29.68 "Hg (Jul 9, 3:01 PM)
Average68 °F80%29.94 "Hg
* Reported Jul 8 7:20 AM — Jul 23 7:20 AM, Mechernich, Weather by CustomWeather, © 2014

Note: Actual official high and low records may vary slightly from our data, if they occured in-between our weather recording intervals... More about our weather records

Advertising

Mechernich weather history for previous 24 hours

 ConditionsComfort  
Time TempWeatherWind HumidityBarometerVisibility
7:20 AM
Jul 23
66 °FBroken clouds.No wind88%30.07 "Hg5 mi
6:20 AM63 °FPartly cloudy.3 mph94%30.07 "Hg5 mi
5:20 AM63 °FPassing clouds.5 mph94%30.07 "HgN/A
4:20 AM64 °FPassing clouds.5 mph88%30.07 "HgN/A
3:20 AM64 °FPassing clouds.5 mph94%30.07 "HgN/A
2:20 AM66 °FPassing clouds.5 mph88%30.07 "HgN/A
1:20 AM64 °FPassing clouds.3 mph94%30.09 "HgN/A
6:20 PM
Jul 22
79 °FPartly sunny.9 mph61%30.04 "HgN/A
5:20 PM79 °FPartly sunny.7 mph61%30.04 "HgN/A
5:03 PM79 °FPartly sunny.7 mph61%30.04 "HgN/A
4:20 PM77 °FBroken clouds.8 mph65%30.04 "HgN/A
3:20 PM77 °FBroken clouds.8 mph65%30.04 "HgN/A
2:20 PM75 °FPartly sunny.8 mph69%30.04 "HgN/A
1:20 PM73 °FBroken clouds.10 mph74%30.04 "HgN/A
12:20 PM75 °FBroken clouds.8 mph69%30.04 "Hg6 mi
11:20 AM73 °FFog.6 mph78%30.04 "Hg3 mi
10:20 AM70 °FFog.7 mph88%30.04 "Hg2 mi
9:20 AM66 °FFog.6 mph100%30.04 "Hg1 mi
8:20 AM66 °FFog.5 mph100%30.01 "Hg1 mi
8:00 AM66 °FFog.6 mph100%30.01 "Hg1 mi
Weather by CustomWeather, © 2014

See weather overviewHow to use our weather pages